| time (UTC) | temp C | wind direction | speed KPH | gust KPH | rain 1hr cm | rain 24hr cm | rain mn cm | humidity % | barometer mb |
| 20260505192054 | 26 | 360 | 20.9 | 38.6 | 0.00 | 0.00 | 0.00 | 37 | 1007.6 |
| 20260505191606 | 26 | 360 | 16.1 | 37.0 | 0.00 | 0.00 | 0.00 | 37 | 1007.7 |
| 20260505191055 | 26 | 360 | 11.3 | 41.8 | 0.00 | 0.00 | 0.00 | 37 | 1007.7 |
| 20260505190552 | 26 | 360 | 19.3 | 41.8 | 0.00 | 0.00 | 0.00 | 37 | 1007.8 |
| 20260505190055 | 26 | 360 | 17.7 | 35.4 | 0.00 | 0.00 | 0.00 | 37 | 1007.7 |
| 20260505185552 | 26 | 360 | 0.0 | 40.2 | 0.00 | 0.00 | 0.00 | 38 | 1007.8 |
| 20260505185051 | 26 | 360 | 17.7 | 40.2 | 0.00 | 0.00 | 0.00 | 37 | 1007.9 |
| 20260505184551 | 26 | 360 | 14.5 | 38.6 | 0.00 | 0.00 | 0.00 | 38 | 1008.0 |
| 20260505184051 | 26 | 360 | 11.3 | 41.8 | 0.00 | 0.00 | 0.00 | 37 | 1008.1 |
| 20260505183549 | 26 | 360 | 16.1 | 30.6 | 0.00 | 0.00 | 0.00 | 38 | 1008.1 |
| 20260505183053 | 26 | 360 | 16.1 | 35.4 | 0.00 | 0.00 | 0.00 | 37 | 1008.2 |
| 20260505182550 | 26 | 360 | 19.3 | 35.4 | 0.00 | 0.00 | 0.00 | 37 | 1008.1 |
| 20260505182051 | 26 | 360 | 16.1 | 38.6 | 0.00 | 0.00 | 0.00 | 37 | 1008.2 |
| 20260505181547 | 26 | 360 | 11.3 | 32.2 | 0.00 | 0.00 | 0.00 | 36 | 1008.3 |
| 20260505181048 | 26 | 360 | 12.9 | 35.4 | 0.00 | 0.00 | 0.00 | 37 | 1008.2 |
| 20260505180546 | 26 | 360 | 11.3 | 35.4 | 0.00 | 0.00 | 0.00 | 37 | 1008.4 |
| 20260505180054 | 26 | 360 | 12.9 | 30.6 | 0.00 | 0.00 | 0.00 | 36 | 1008.5 |
| 20260505175546 | 26 | 360 | 16.1 | 30.6 | 0.00 | 0.00 | 0.00 | 37 | 1008.5 |
| 20260505175046 | 25 | 360 | 11.3 | 33.8 | 0.00 | 0.00 | 0.00 | 39 | 1008.4 |
| 20260505174546 | 26 | 360 | 8.0 | 33.8 | 0.00 | 0.00 | 0.00 | 37 | 1008.6 |
| 20260505174045 | 26 | 360 | 17.7 | 32.2 | 0.00 | 0.00 | 0.00 | 37 | 1008.5 |
| 20260505173543 | 26 | 360 | 8.0 | 35.4 | 0.00 | 0.00 | 0.00 | 36 | 1008.6 |
| 20260505173048 | 25 | 360 | 12.9 | 35.4 | 0.00 | 0.00 | 0.00 | 38 | 1008.6 |
| 20260505172543 | 25 | 360 | 6.4 | 32.2 | 0.00 | 0.00 | 0.00 | 40 | 1008.6 |
| 20260505172042 | 25 | 360 | 8.0 | 32.2 | 0.00 | 0.00 | 0.00 | 41 | 1008.7 |
| 20260505171549 | 25 | 360 | 3.2 | 30.6 | 0.00 | 0.00 | 0.00 | 41 | 1008.8 |
| 20260505171042 | 26 | 360 | 9.7 | 20.9 | 0.00 | 0.00 | 0.00 | 39 | 1008.9 |
| 20260505170541 | 25 | 360 | 6.4 | 32.2 | 0.00 | 0.00 | 0.00 | 37 | 1008.7 |
| 20260505170041 | 25 | 360 | 9.7 | 32.2 | 0.00 | 0.00 | 0.00 | 37 | 1009.0 |
| 20260505165540 | 26 | 360 | 4.8 | 32.2 | 0.00 | 0.00 | 0.00 | 38 | 1009.0 |
| 20260505165040 | 25 | 360 | 9.7 | 33.8 | 0.00 | 0.00 | 0.00 | 38 | 1009.0 |
| 20260505164538 | 25 | 360 | 14.5 | 33.8 | 0.00 | 0.00 | 0.00 | 40 | 1009.1 |
| 20260505164038 | 25 | 360 | 9.7 | 35.4 | 0.00 | 0.00 | 0.00 | 41 | 1009.1 |
| 20260505163537 | 25 | 360 | 12.9 | 35.4 | 0.00 | 0.00 | 0.00 | 42 | 1009.3 |
| 20260505163036 | 25 | 360 | 11.3 | 33.8 | 0.00 | 0.00 | 0.00 | 41 | 1009.4 |
| 20260505162536 | 25 | 360 | 4.8 | 24.1 | 0.00 | 0.00 | 0.00 | 43 | 1009.4 |
| 20260505162036 | 25 | 360 | 6.4 | 24.1 | 0.00 | 0.00 | 0.00 | 42 | 1009.4 |
| 20260505161534 | 25 | 360 | 8.0 | 24.1 | 0.00 | 0.00 | 0.00 | 44 | 1009.5 |
| 20260505161034 | 25 | 360 | 8.0 | 25.7 | 0.00 | 0.00 | 0.00 | 44 | 1009.6 |
| 20260505160536 | 25 | 360 | 11.3 | 25.7 | 0.00 | 0.00 | 0.00 | 45 | 1009.5 |
| 20260505153029 | 24 | 274 | 3.2 | 20.9 | 0.00 | 0.00 | 0.00 | 48 | 1009.8 |
| 20260505152529 | 23 | 360 | 6.4 | 20.9 | 0.00 | 0.00 | 0.00 | 46 | 1009.8 |
| 20260505152028 | 23 | 360 | 6.4 | 22.5 | 0.00 | 0.00 | 0.00 | 47 | 1009.7 |
| 20260505151527 | 23 | 360 | 8.0 | 22.5 | 0.00 | 0.00 | 0.00 | 46 | 1009.7 |
| 20260505151027 | 23 | 360 | 9.7 | 22.5 | 0.00 | 0.00 | 0.00 | 47 | 1009.8 |
| 20260505150526 | 23 | 360 | 4.8 | 25.7 | 0.00 | 0.00 | 0.00 | 48 | 1009.8 |
| 20260505140514 | 21 | 360 | 4.8 | 17.7 | 0.00 | 0.00 | 0.00 | 54 | 1010.4 |
| 20260505125002 | 18 | 234 | 0.0 | 6.4 | 0.00 | 0.00 | 0.00 | 64 | 1010.9 |
| 20260505124503 | 17 | 202 | 0.0 | 9.7 | 0.00 | 0.00 | 0.00 | 65 | 1011.0 |
| 20260505124003 | 17 | 217 | 1.6 | 9.7 | 0.00 | 0.00 | 0.00 | 65 | 1011.0 |
| 20260505123501 | 17 | 180 | 0.0 | 0.0 | 0.00 | 0.00 | 0.00 | 66 | 1010.9 |
| 20260505123001 | 17 | 255 | 0.0 | 0.0 | 0.00 | 0.00 | 0.00 | 67 | 1011.0 |
| 20260505122501 | 17 | 255 | 0.0 | 0.0 | 0.00 | 0.00 | 0.00 | 69 | 1011.1 |
| 20260505122001 | 16 | 255 | 0.0 | 0.0 | 0.00 | 0.00 | 0.00 | 69 | 1011.0 |
| 20260505121629 | 16 | 255 | 0.0 | 0.0 | 0.00 | 0.00 | 0.00 | 70 | 1011.0 |
| 20260505121100 | 16 | 255 | 0.0 | 0.0 | 0.00 | 0.00 | 0.00 | 70 | 1011.0 |
| 20260505120559 | 16 | 255 | 0.0 | 0.0 | 0.00 | 0.00 | 0.00 | 71 | 1010.9 |
| 20260505120059 | 16 | 255 | 0.0 | 0.0 | 0.00 | 0.00 | 0.00 | 71 | 1010.8 |
| 20260505115559 | 16 | 255 | 0.0 | 0.0 | 0.00 | 0.00 | 0.00 | 72 | 1010.9 |
| 20260505115059 | 15 | 255 | 0.0 | 0.0 | 0.00 | 0.00 | 0.00 | 73 | 1010.9 |
| 20260505114600 | 15 | 255 | 0.0 | 0.0 | 0.00 | 0.00 | 0.00 | 72 | 1010.8 |
| 20260505114100 | 15 | 255 | 0.0 | 0.0 | 0.00 | 0.00 | 0.00 | 72 | 1010.8 |
| 20260505113559 | 15 | 255 | 0.0 | 0.0 | 0.00 | 0.00 | 0.00 | 72 | 1010.7 |
| 20260505113103 | 15 | 255 | 0.0 | 0.0 | 0.00 | 0.00 | 0.00 | 74 | 1010.6 |
| 20260505112557 | 15 | 255 | 0.0 | 0.0 | 0.00 | 0.00 | 0.00 | 75 | 1010.6 |
| 20260505112057 | 14 | 255 | 0.0 | 0.0 | 0.00 | 0.00 | 0.00 | 77 | 1010.5 |
| 20260505111557 | 13 | 255 | 0.0 | 0.0 | 0.00 | 0.00 | 0.00 | 78 | 1010.5 |
| 20260505111100 | 13 | 255 | 0.0 | 0.0 | 0.00 | 0.00 | 0.00 | 78 | 1010.5 |
| 20260505110557 | 13 | 255 | 0.0 | 0.0 | 0.00 | 0.00 | 0.00 | 79 | 1010.4 |
| 20260505102052 | 13 | 257 | 0.0 | 0.0 | 0.00 | 0.00 | 0.00 | 75 | 1010.0 |
| 20260505101554 | 13 | 252 | 0.0 | 0.0 | 0.00 | 0.00 | 0.00 | 77 | 1010.0 |
| 20260505101052 | 13 | 185 | 0.0 | 0.0 | 0.00 | 0.00 | 0.00 | 77 | 1010.0 |
| 20260505100554 | 12 | 184 | 0.0 | 0.0 | 0.00 | 0.00 | 0.00 | 76 | 1010.0 |
| 20260505100128 | 12 | 184 | 0.0 | 0.0 | 0.00 | 0.00 | 0.00 | 77 | 1009.8 |
| 20260505095556 | 12 | 184 | 0.0 | 0.0 | 0.00 | 0.00 | 0.00 | 78 | 1009.8 |
| 20260505095051 | 12 | 184 | 0.0 | 0.0 | 0.00 | 0.00 | 0.00 | 78 | 1009.8 |
| 20260505094551 | 12 | 184 | 0.0 | 0.0 | 0.00 | 0.00 | 0.00 | 77 | 1010.0 |
| 20260505094050 | 12 | 184 | 0.0 | 0.0 | 0.00 | 0.00 | 0.00 | 77 | 1010.0 |
| 20260505093549 | 12 | 184 | 0.0 | 0.0 | 0.00 | 0.00 | 0.00 | 77 | 1009.9 |
| 20260505093052 | 12 | 360 | 0.0 | 0.0 | 0.00 | 0.00 | 0.00 | 76 | 1009.9 |
| 20260505092552 | 13 | 267 | 0.0 | 0.0 | 0.00 | 0.00 | 0.00 | 75 | 1009.8 |
| 20260505092046 | 13 | 269 | 0.0 | 0.0 | 0.00 | 0.00 | 0.00 | 73 | 1009.8 |
| 20260505091607 | 13 | 269 | 0.0 | 0.0 | 0.00 | 0.00 | 0.00 | 72 | 1009.8 |
| 20260505091042 | 14 | 269 | 0.0 | 0.0 | 0.00 | 0.00 | 0.00 | 71 | 1009.7 |
| 20260505090541 | 15 | 269 | 0.0 | 0.0 | 0.00 | 0.00 | 0.00 | 70 | 1009.7 |
| 20260505090054 | 15 | 269 | 0.0 | 0.0 | 0.00 | 0.00 | 0.00 | 69 | 1009.6 |
| 20260505085539 | 15 | 242 | 0.0 | 0.0 | 0.00 | 0.00 | 0.00 | 69 | 1009.6 |
| 20260505085038 | 15 | 240 | 0.0 | 0.0 | 0.00 | 0.00 | 0.00 | 67 | 1009.4 |
| 20260505084537 | 16 | 236 | 0.0 | 0.0 | 0.00 | 0.00 | 0.00 | 66 | 1009.5 |
| 20260505084039 | 16 | 236 | 0.0 | 0.0 | 0.00 | 0.00 | 0.00 | 66 | 1009.6 |
| 20260505083534 | 16 | 236 | 0.0 | 0.0 | 0.00 | 0.00 | 0.00 | 66 | 1009.6 |
| 20260505083046 | 16 | 196 | 0.0 | 0.0 | 0.00 | 0.00 | 0.00 | 66 | 1009.6 |
| 20260505082535 | 16 | 188 | 0.0 | 0.0 | 0.00 | 0.00 | 0.00 | 66 | 1009.7 |
| 20260505082034 | 16 | 188 | 0.0 | 0.0 | 0.00 | 0.00 | 0.00 | 65 | 1009.6 |
| 20260505081539 | 16 | 188 | 0.0 | 0.0 | 0.00 | 0.00 | 0.00 | 65 | 1009.5 |
| 20260505081032 | 16 | 188 | 0.0 | 0.0 | 0.00 | 0.00 | 0.00 | 64 | 1009.5 |
| 20260505080536 | 16 | 188 | 0.0 | 0.0 | 0.00 | 0.00 | 0.00 | 64 | 1009.5 |
| 20260505080044 | 16 | 188 | 0.0 | 0.0 | 0.00 | 0.00 | 0.00 | 64 | 1009.4 |
| 20260505075533 | 16 | 189 | 0.0 | 0.0 | 0.00 | 0.00 | 0.00 | 63 | 1009.6 |
| 20260505075034 | 17 | 190 | 0.0 | 0.0 | 0.00 | 0.00 | 0.00 | 63 | 1009.4 |
| 20260505074529 | 17 | 193 | 0.0 | 4.8 | 0.00 | 0.00 | 0.00 | 63 | 1009.3 |
| 20260505074032 | 17 | 198 | 0.0 | 8.0 | 0.00 | 0.00 | 0.00 | 62 | 1009.4 |
| 20260505073528 | 17 | 198 | 0.0 | 11.3 | 0.00 | 0.00 | 0.00 | 62 | 1009.3 |
| 20260505073027 | 17 | 190 | 1.6 | 11.3 | 0.00 | 0.00 | 0.00 | 62 | 1009.2 |
| 20260505072528 | 17 | 183 | 1.6 | 11.3 | 0.00 | 0.00 | 0.00 | 62 | 1009.1 |
| 20260505072027 | 17 | 201 | 1.6 | 14.5 | 0.00 | 0.00 | 0.00 | 62 | 1009.1 |
| 20260505071536 | 17 | 198 | 1.6 | 12.9 | 0.00 | 0.00 | 0.00 | 61 | 1009.1 |
| 20260505071025 | 17 | 196 | 1.6 | 14.5 | 0.00 | 0.00 | 0.00 | 61 | 1009.1 |
| 20260505070525 | 17 | 202 | 3.2 | 14.5 | 0.00 | 0.00 | 0.00 | 61 | 1009.2 |
| 20260505070028 | 17 | 184 | 0.0 | 6.4 | 0.00 | 0.00 | 0.00 | 61 | 1009.2 |
| 20260505065523 | 17 | 186 | 0.0 | 8.0 | 0.00 | 0.00 | 0.00 | 60 | 1009.3 |
| 20260505065022 | 17 | 165 | 3.2 | 9.7 | 0.00 | 0.00 | 0.00 | 60 | 1009.4 |
| 20260505064524 | 17 | 360 | 1.6 | 8.0 | 0.00 | 0.00 | 0.00 | 60 | 1009.3 |
| 20260505064020 | 18 | 195 | 1.6 | 11.3 | 0.00 | 0.00 | 0.00 | 59 | 1009.4 |
| 20260505063520 | 18 | 218 | 1.6 | 12.9 | 0.00 | 0.00 | 0.00 | 59 | 1009.4 |
| 20260505063030 | 18 | 190 | 1.6 | 19.3 | 0.00 | 0.00 | 0.00 | 59 | 1009.4 |
| 20260505062520 | 18 | 228 | 3.2 | 19.3 | 0.00 | 0.00 | 0.00 | 59 | 1009.4 |
| 20260505062026 | 18 | 230 | 8.0 | 16.1 | 0.00 | 0.00 | 0.00 | 59 | 1009.5 |
| 20260505061524 | 18 | 201 | 3.2 | 14.5 | 0.00 | 0.00 | 0.00 | 59 | 1009.4 |
| 20260505061022 | 18 | 215 | 1.6 | 12.9 | 0.00 | 0.00 | 0.00 | 59 | 1009.4 |
| 20260505060519 | 18 | 236 | 0.0 | 12.9 | 0.00 | 0.00 | 0.00 | 59 | 1009.6 |
| 20260505060019 | 18 | 198 | 1.6 | 12.9 | 0.00 | 0.00 | 0.00 | 59 | 1009.6 |
| 20260505055518 | 18 | 360 | 4.8 | 11.3 | 0.00 | 0.00 | 0.00 | 59 | 1009.6 |
| 20260505055018 | 18 | 194 | 3.2 | 9.7 | 0.00 | 0.00 | 0.00 | 59 | 1009.5 |
| 20260505054518 | 18 | 206 | 4.8 | 9.7 | 0.00 | 0.00 | 0.00 | 58 | 1009.5 |
| 20260505054017 | 18 | 192 | 3.2 | 9.7 | 0.00 | 0.00 | 0.00 | 58 | 1009.5 |
| 20260505053516 | 18 | 201 | 4.8 | 9.7 | 0.00 | 0.00 | 0.00 | 58 | 1009.6 |
| 20260505053016 | 18 | 196 | 0.0 | 8.0 | 0.00 | 0.00 | 0.00 | 57 | 1009.6 |
| 20260505052515 | 18 | 360 | 0.0 | 8.0 | 0.00 | 0.00 | 0.00 | 57 | 1009.7 |
| 20260505052015 | 18 | 216 | 0.0 | 9.7 | 0.00 | 0.00 | 0.00 | 57 | 1009.6 |
| 20260505051526 | 18 | 229 | 1.6 | 12.9 | 0.00 | 0.00 | 0.00 | 57 | 1009.7 |
| 20260505051014 | 18 | 209 | 3.2 | 12.9 | 0.00 | 0.00 | 0.00 | 56 | 1009.6 |
| 20260505050518 | 18 | 209 | 0.0 | 9.7 | 0.00 | 0.00 | 0.00 | 56 | 1009.5 |
| 20260505041508 | 18 | 234 | 1.6 | 12.9 | 0.00 | 0.00 | 0.00 | 54 | 1009.3 |
| 20260505041008 | 18 | 207 | 1.6 | 14.5 | 0.00 | 0.00 | 0.00 | 53 | 1009.2 |
| 20260505040508 | 18 | 211 | 0.0 | 14.5 | 0.00 | 0.00 | 0.00 | 53 | 1009.2 |
| 20260505040008 | 18 | 360 | 3.2 | 14.5 | 0.00 | 0.00 | 0.00 | 53 | 1009.2 |
| 20260505035507 | 18 | 208 | 1.6 | 16.1 | 0.00 | 0.00 | 0.00 | 52 | 1009.3 |
| 20260505035007 | 18 | 219 | 0.0 | 16.1 | 0.00 | 0.00 | 0.00 | 52 | 1009.2 |
| 20260505034507 | 18 | 225 | 4.8 | 16.1 | 0.00 | 0.00 | 0.00 | 52 | 1009.3 |
| 20260505034007 | 18 | 211 | 0.0 | 8.0 | 0.00 | 0.00 | 0.00 | 52 | 1009.2 |
| 20260505033507 | 18 | 222 | 0.0 | 6.4 | 0.00 | 0.00 | 0.00 | 52 | 1009.2 |
| 20260505033007 | 18 | 225 | 0.0 | 4.8 | 0.00 | 0.00 | 0.00 | 52 | 1009.3 |
| 20260505032508 | 18 | 216 | 0.0 | 4.8 | 0.00 | 0.00 | 0.00 | 52 | 1009.3 |
| 20260505032008 | 18 | 209 | 0.0 | 1.6 | 0.00 | 0.00 | 0.00 | 52 | 1009.3 |
| 20260505031518 | 18 | 223 | 0.0 | 12.9 | 0.00 | 0.00 | 0.00 | 52 | 1009.3 |
| 20260505031006 | 18 | 234 | 0.0 | 12.9 | 0.00 | 0.00 | 0.00 | 52 | 1009.3 |
| 20260505030506 | 18 | 223 | 0.0 | 0.0 | 0.00 | 0.00 | 0.00 | 52 | 1009.3 |
| 20260505030006 | 18 | 252 | 0.0 | 0.0 | 0.00 | 0.00 | 0.00 | 51 | 1009.3 |
| 20260505025513 | 18 | 271 | 0.0 | 6.4 | 0.00 | 0.00 | 0.00 | 51 | 1009.3 |
| 20260505025007 | 18 | 263 | 0.0 | 6.4 | 0.00 | 0.00 | 0.00 | 51 | 1009.2 |
| 20260505024505 | 18 | 263 | 0.0 | 17.7 | 0.00 | 0.00 | 0.00 | 51 | 1009.1 |
| 20260505024006 | 18 | 360 | 8.0 | 17.7 | 0.00 | 0.00 | 0.00 | 51 | 1009.0 |
| 20260505023504 | 18 | 210 | 0.0 | 8.0 | 0.00 | 0.00 | 0.00 | 51 | 1009.1 |
| 20260505023005 | 18 | 360 | 1.6 | 8.0 | 0.00 | 0.00 | 0.00 | 51 | 1009.1 |
| 20260505022505 | 18 | 141 | 0.0 | 9.7 | 0.00 | 0.00 | 0.00 | 51 | 1009.0 |
| 20260505022006 | 18 | 138 | 0.0 | 9.7 | 0.00 | 0.00 | 0.00 | 51 | 1008.9 |
| 20260505021504 | 18 | 147 | 0.0 | 12.9 | 0.00 | 0.00 | 0.00 | 51 | 1009.0 |
| 20260505021004 | 18 | 360 | 0.0 | 14.5 | 0.00 | 0.00 | 0.00 | 50 | 1009.0 |
| 20260505020504 | 18 | 175 | 1.6 | 14.5 | 0.00 | 0.00 | 0.00 | 50 | 1009.0 |
| 20260505020004 | 18 | 170 | 0.0 | 11.3 | 0.00 | 0.00 | 0.00 | 50 | 1009.0 |
| 20260505015504 | 18 | 360 | 0.0 | 8.0 | 0.00 | 0.00 | 0.00 | 50 | 1009.1 |
| 20260505015005 | 18 | 142 | 1.6 | 8.0 | 0.00 | 0.00 | 0.00 | 50 | 1009.0 |
| 20260505014509 | 18 | 159 | 1.6 | 9.7 | 0.00 | 0.00 | 0.00 | 49 | 1009.0 |
| 20260505014004 | 18 | 128 | 3.2 | 12.9 | 0.00 | 0.00 | 0.00 | 49 | 1009.0 |
| 20260505013504 | 19 | 157 | 0.0 | 12.9 | 0.00 | 0.00 | 0.00 | 49 | 1009.0 |
| 20260505013003 | 19 | 173 | 0.0 | 12.9 | 0.00 | 0.00 | 0.00 | 48 | 1009.0 |
| 20260505012505 | 19 | 138 | 1.6 | 14.5 | 0.00 | 0.00 | 0.00 | 47 | 1009.1 |
| 20260505012003 | 19 | 211 | 3.2 | 12.9 | 0.00 | 0.00 | 0.00 | 47 | 1009.1 |
| 20260505011503 | 20 | 178 | 1.6 | 12.9 | 0.00 | 0.00 | 0.00 | 47 | 1009.1 |
| 20260505011002 | 20 | 138 | 1.6 | 12.9 | 0.00 | 0.00 | 0.00 | 46 | 1009.0 |
| 20260505010503 | 20 | 166 | 1.6 | 12.9 | 0.00 | 0.00 | 0.00 | 45 | 1008.9 |
| 20260505010006 | 20 | 360 | 1.6 | 8.0 | 0.00 | 0.00 | 0.00 | 45 | 1008.8 |
| 20260505005503 | 20 | 186 | 0.0 | 6.4 | 0.00 | 0.00 | 0.00 | 44 | 1008.7 |
| 20260505005003 | 20 | 198 | 0.0 | 6.4 | 0.00 | 0.00 | 0.00 | 44 | 1008.6 |
| 20260505004502 | 20 | 161 | 0.0 | 1.6 | 0.00 | 0.00 | 0.00 | 44 | 1008.5 |
| 20260505004004 | 21 | 168 | 0.0 | 4.8 | 0.00 | 0.00 | 0.00 | 43 | 1008.5 |
| 20260505003501 | 21 | 174 | 0.0 | 8.0 | 0.00 | 0.00 | 0.00 | 43 | 1008.5 |
| 20260505003001 | 21 | 169 | 0.0 | 8.0 | 0.00 | 0.00 | 0.00 | 42 | 1008.5 |
| 20260505002502 | 21 | 187 | 0.0 | 9.7 | 0.00 | 0.00 | 0.00 | 42 | 1008.5 |
| 20260505002002 | 21 | 210 | 0.0 | 9.7 | 0.00 | 0.00 | 0.00 | 42 | 1008.5 |
| 20260505001502 | 21 | 194 | 1.6 | 14.5 | 0.00 | 0.00 | 0.00 | 41 | 1008.4 |
| 20260505001003 | 21 | 176 | 3.2 | 14.5 | 0.00 | 0.00 | 0.00 | 41 | 1008.3 |
| 20260505000501 | 21 | 187 | 1.6 | 9.7 | 0.00 | 0.00 | 0.00 | 41 | 1008.4 |
| 20260505000001 | 21 | 180 | 1.6 | 16.1 | 0.00 | 0.00 | 0.00 | 41 | 1008.4 |
| 20260504235502 | 21 | 225 | 4.8 | 20.9 | 0.00 | 0.00 | 0.00 | 41 | 1008.3 |
| 20260504235002 | 21 | 202 | 6.4 | 20.9 | 0.00 | 0.00 | 0.00 | 41 | 1008.3 |
| 20260504234500 | 21 | 236 | 4.8 | 19.3 | 0.00 | 0.00 | 0.00 | 41 | 1008.3 |
| 20260504234001 | 21 | 360 | 3.2 | 19.3 | 0.00 | 0.00 | 0.00 | 41 | 1008.1 |
| 20260504233600 | 21 | 194 | 8.0 | 19.3 | 0.00 | 0.00 | 0.00 | 41 | 1008.1 |
| 20260504233111 | 21 | 198 | 4.8 | 16.1 | 0.00 | 0.00 | 0.00 | 41 | 1008.1 |
| 20260504232600 | 22 | 213 | 3.2 | 14.5 | 0.00 | 0.00 | 0.00 | 41 | 1008.1 |
| 20260504232100 | 22 | 210 | 4.8 | 20.9 | 0.00 | 0.00 | 0.00 | 41 | 1008.2 |
| 20260504231559 | 22 | 171 | 8.0 | 16.1 | 0.00 | 0.00 | 0.00 | 41 | 1008.1 |
| 20260504231058 | 22 | 184 | 3.2 | 16.1 | 0.00 | 0.00 | 0.00 | 41 | 1008.2 |
| 20260504230558 | 22 | 360 | 6.4 | 14.5 | 0.00 | 0.00 | 0.00 | 40 | 1008.2 |
| 20260504230115 | 22 | 360 | 3.2 | 11.3 | 0.00 | 0.00 | 0.00 | 41 | 1008.3 |
| 20260504225558 | 22 | 249 | 1.6 | 14.5 | 0.00 | 0.00 | 0.00 | 41 | 1008.3 |
| 20260504225101 | 22 | 360 | 1.6 | 20.9 | 0.00 | 0.00 | 0.00 | 41 | 1008.3 |
| 20260504224621 | 22 | 360 | 8.0 | 20.9 | 0.00 | 0.00 | 0.00 | 40 | 1008.3 |
| 20260504224057 | 22 | 360 | 4.8 | 16.1 | 0.00 | 0.00 | 0.00 | 41 | 1008.3 |
| 20260504223556 | 22 | 215 | 6.4 | 20.9 | 0.00 | 0.00 | 0.00 | 40 | 1008.3 |
| 20260504223058 | 22 | 202 | 4.8 | 29.0 | 0.00 | 0.00 | 0.00 | 40 | 1008.4 |
| 20260504222556 | 22 | 195 | 8.0 | 24.1 | 0.00 | 0.00 | 0.00 | 40 | 1008.4 |
| 20260504222055 | 22 | 209 | 4.8 | 24.1 | 0.00 | 0.00 | 0.00 | 39 | 1008.4 |
| 20260504221555 | 22 | 205 | 4.8 | 25.7 | 0.00 | 0.00 | 0.00 | 39 | 1008.4 |
| 20260504221055 | 22 | 199 | 8.0 | 24.1 | 0.00 | 0.00 | 0.00 | 39 | 1008.4 |
| 20260504220555 | 22 | 360 | 3.2 | 24.1 | 0.00 | 0.00 | 0.00 | 40 | 1008.5 |
| 20260504220058 | 22 | 360 | 3.2 | 17.7 | 0.00 | 0.00 | 0.00 | 40 | 1008.5 |
| 20260504215554 | 22 | 360 | 4.8 | 16.1 | 0.00 | 0.00 | 0.00 | 39 | 1008.4 |
| 20260504215055 | 22 | 216 | 3.2 | 17.7 | 0.00 | 0.00 | 0.00 | 40 | 1008.4 |
| 20260504214553 | 22 | 219 | 8.0 | 33.8 | 0.00 | 0.00 | 0.00 | 39 | 1008.3 |
| 20260504214055 | 22 | 196 | 17.7 | 32.2 | 0.00 | 0.00 | 0.00 | 39 | 1008.5 |
| 20260504213553 | 22 | 172 | 9.7 | 20.9 | 0.00 | 0.00 | 0.00 | 39 | 1008.4 |
| 20260504213100 | 22 | 186 | 3.2 | 20.9 | 0.00 | 0.00 | 0.00 | 39 | 1008.5 |
| 20260504212555 | 22 | 360 | 11.3 | 22.5 | 0.00 | 0.00 | 0.00 | 39 | 1008.4 |
| 20260504212055 | 22 | 360 | 8.0 | 25.7 | 0.00 | 0.00 | 0.00 | 39 | 1008.4 |
| 20260504211558 | 22 | 205 | 6.4 | 25.7 | 0.00 | 0.00 | 0.00 | 39 | 1008.4 |
| 20260504211053 | 22 | 360 | 4.8 | 25.7 | 0.00 | 0.00 | 0.00 | 39 | 1008.5 |
| 20260504210554 | 22 | 360 | 4.8 | 19.3 | 0.00 | 0.00 | 0.00 | 39 | 1008.4 |
| 20260504210101 | 22 | 360 | 1.6 | 16.1 | 0.00 | 0.00 | 0.00 | 40 | 1008.5 |
| 20260504205551 | 22 | 214 | 3.2 | 24.1 | 0.00 | 0.00 | 0.00 | 40 | 1008.4 |
| 20260504205052 | 22 | 190 | 4.8 | 24.1 | 0.00 | 0.00 | 0.00 | 39 | 1008.5 |
| 20260504204554 | 22 | 360 | 3.2 | 20.9 | 0.00 | 0.00 | 0.00 | 38 | 1008.5 |
| 20260504204052 | 22 | 360 | 6.4 | 25.7 | 0.00 | 0.00 | 0.00 | 38 | 1008.5 |
| 20260504203550 | 22 | 360 | 3.2 | 25.7 | 0.00 | 0.00 | 0.00 | 39 | 1008.6 |
| 20260504203048 | 22 | 261 | 3.2 | 20.9 | 0.00 | 0.00 | 0.00 | 41 | 1008.6 |
| 20260504202548 | 22 | 360 | 8.0 | 20.9 | 0.00 | 0.00 | 0.00 | 39 | 1008.6 |
| 20260504202049 | 22 | 360 | 3.2 | 24.1 | 0.00 | 0.00 | 0.00 | 39 | 1008.7 |
| 20260504201549 | 21 | 360 | 8.0 | 20.9 | 0.00 | 0.00 | 0.00 | 40 | 1008.9 |
| 20260504201046 | 21 | 222 | 8.0 | 24.1 | 0.00 | 0.00 | 0.00 | 39 | 1009.0 |
| 20260504200545 | 21 | 189 | 3.2 | 25.7 | 0.00 | 0.00 | 0.00 | 40 | 1009.0 |
| 20260504200055 | 22 | 360 | 4.8 | 17.7 | 0.00 | 0.00 | 0.00 | 38 | 1009.1 |
| 20260504195544 | 22 | 360 | 3.2 | 19.3 | 0.00 | 0.00 | 0.00 | 40 | 1009.2 |
| 20260504195043 | 21 | 179 | 1.6 | 19.3 | 0.00 | 0.00 | 0.00 | 41 | 1009.2 |
| 20260504194543 | 21 | 237 | 6.4 | 22.5 | 0.00 | 0.00 | 0.00 | 40 | 1009.2 |
| 20260504194041 | 21 | 360 | 4.8 | 22.5 | 0.00 | 0.00 | 0.00 | 40 | 1009.5 |
| 20260504193541 | 21 | 360 | 4.8 | 19.3 | 0.00 | 0.00 | 0.00 | 39 | 1009.5 |
| 20260504193043 | 21 | 360 | 3.2 | 17.7 | 0.00 | 0.00 | 0.00 | 40 | 1009.6 |
| 20260504192538 | 21 | 238 | 3.2 | 35.4 | 0.00 | 0.00 | 0.00 | 39 | 1009.7 |